Time,TemperatureF,DewpointF,PressureIn,WindDirection,WindDirectionDegrees,WindSpeedMPH,WindSpeedGustMPH,Humidity,HourlyPrecipIn,Conditions,Clouds,dailyrainin,SolarRadiationWatts/m^2,SoftwareType,DateUTC
2013-03-16 00:02:00,10.0,5.0,-100.00,NNE,28,7.0,10.0,79,0.00,,,0.01,0.000000,,2013-03-16 05:02:00,
2013-03-16 00:32:00,9.0,3.0,-100.00,NNE,27,6.0,11.0,77,0.00,,,0.01,0.000000,,2013-03-16 05:32:00,
2013-03-16 00:42:00,9.0,3.0,-100.00,NNE,27,6.0,11.0,77,0.00,,,0.01,0.000000,,2013-03-16 05:42:00,
2013-03-16 00:53:00,9.0,3.0,-100.00,NNE,27,6.0,11.0,77,0.00,,,0.01,0.000000,,2013-03-16 05:53:00,
2013-03-16 01:02:00,9.0,3.0,-100.00,NNE,27,6.0,11.0,77,0.00,,,0.01,0.000000,,2013-03-16 06:02:00,
2013-03-16 01:22:00,8.0,3.0,-100.00,NNE,28,5.0,10.0,79,0.01,,,0.02,0.000000,,2013-03-16 06:22:00,
2013-03-16 01:32:00,8.0,3.0,-100.00,NNE,28,5.0,10.0,79,0.01,,,0.02,0.000000,,2013-03-16 06:32:00,
2013-03-16 01:42:00,8.0,3.0,-100.00,NNE,28,5.0,10.0,79,0.01,,,0.02,0.000000,,2013-03-16 06:42:00,
2013-03-16 01:52:00,8.0,3.0,-100.00,NNE,28,5.0,10.0,79,0.01,,,0.02,0.000000,,2013-03-16 06:52:00,
2013-03-16 02:02:00,8.0,3.0,-100.00,NNE,28,5.0,10.0,79,0.01,,,0.02,0.000000,,2013-03-16 07:02:00,
2013-03-16 02:32:00,8.0,3.0,-100.00,NNE,27,4.0,9.0,79,0.00,,,0.02,0.000000,,2013-03-16 07:32:00,
2013-03-16 02:42:00,8.0,3.0,-100.00,NNE,27,4.0,9.0,79,0.00,,,0.02,0.000000,,2013-03-16 07:42:00,
2013-03-16 02:52:00,8.0,3.0,-100.00,NNE,27,4.0,9.0,79,0.00,,,0.02,0.000000,,2013-03-16 07:52:00,
2013-03-16 03:02:00,8.0,3.0,-100.00,NNE,27,4.0,9.0,79,0.00,,,0.02,0.000000,,2013-03-16 08:02:00,
2013-03-16 03:33:00,5.0,0.0,-100.00,NNE,33,3.0,7.0,80,0.00,,,0.02,0.000000,,2013-03-16 08:33:00,
2013-03-16 03:42:00,5.0,0.0,-100.00,NNE,33,3.0,7.0,80,0.00,,,0.02,0.000000,,2013-03-16 08:42:00,
2013-03-16 03:52:00,5.0,0.0,-100.00,NNE,33,3.0,7.0,80,0.00,,,0.02,0.000000,,2013-03-16 08:52:00,
2013-03-16 04:01:00,5.0,0.0,-100.00,NNE,33,3.0,7.0,80,0.00,,,0.02,0.000000,,2013-03-16 09:01:00,
2013-03-16 04:33:00,3.0,-2.0,-100.00,NNE,28,3.0,5.0,80,0.00,,,0.02,0.000000,,2013-03-16 09:33:00,
2013-03-16 04:42:00,3.0,-2.0,-100.00,NNE,28,3.0,5.0,80,0.00,,,0.02,0.000000,,2013-03-16 09:42:00,
2013-03-16 04:53:00,3.0,-2.0,-100.00,NNE,28,3.0,5.0,80,0.00,,,0.02,0.000000,,2013-03-16 09:53:00,
2013-03-16 05:03:00,3.0,-2.0,-100.00,NNE,28,3.0,5.0,80,0.00,,,0.02,0.000000,,2013-03-16 10:03:00,
2013-03-16 05:32:00,2.0,-3.0,-100.00,NE,36,1.0,4.0,79,0.00,,,0.02,0.000000,,2013-03-16 10:32:00,
2013-03-16 05:42:00,2.0,-3.0,-100.00,NE,36,1.0,4.0,79,0.00,,,0.02,0.000000,,2013-03-16 10:42:00,
2013-03-16 05:53:00,2.0,-3.0,-100.00,NE,36,1.0,4.0,79,0.00,,,0.02,0.000000,,2013-03-16 10:53:00,
2013-03-16 06:03:00,2.0,-3.0,-100.00,NE,36,1.0,4.0,79,0.00,,,0.02,0.000000,,2013-03-16 11:03:00,
2013-03-16 06:33:00,2.0,-3.0,-100.00,NW,323,1.0,4.0,78,0.00,,,0.02,0.000000,,2013-03-16 11:33:00,
2013-03-16 06:43:00,2.0,-3.0,-100.00,NW,323,1.0,4.0,78,0.00,,,0.02,0.000000,,2013-03-16 11:43:00,
2013-03-16 06:52:00,2.0,-3.0,-100.00,NW,323,1.0,4.0,78,0.00,,,0.02,0.000000,,2013-03-16 11:52:00,
2013-03-16 07:02:00,2.0,-3.0,-100.00,NW,323,1.0,4.0,78,0.00,,,0.02,0.000000,,2013-03-16 12:02:00,
2013-03-16 07:22:00,2.0,-3.0,-100.00,West,265,2.0,4.0,79,0.00,,,0.02,0.000000,,2013-03-16 12:22:00,
2013-03-16 07:32:00,2.0,-3.0,-100.00,West,265,2.0,4.0,79,0.00,,,0.02,0.000000,,2013-03-16 12:32:00,
2013-03-16 07:43:00,2.0,-3.0,-100.00,West,265,2.0,4.0,79,0.00,,,0.02,0.000000,,2013-03-16 12:43:00,
2013-03-16 07:53:00,2.0,-3.0,-100.00,West,265,2.0,4.0,79,0.00,,,0.02,0.000000,,2013-03-16 12:53:00,
2013-03-16 08:02:00,2.0,-3.0,-100.00,West,265,2.0,4.0,79,0.00,,,0.02,0.000000,,2013-03-16 13:02:00,
2013-03-16 08:32:00,3.0,-2.0,-100.00,NNW,327,4.0,6.0,78,0.00,,,0.02,15.000000,,2013-03-16 13:32:00,
2013-03-16 08:42:00,3.0,-2.0,-100.00,NNW,327,4.0,6.0,78,0.00,,,0.02,15.000000,,2013-03-16 13:42:00,
2013-03-16 08:53:00,3.0,-2.0,-100.00,NNW,327,4.0,6.0,78,0.00,,,0.02,15.000000,,2013-03-16 13:53:00,
2013-03-16 09:02:00,3.0,-2.0,-100.00,NNW,327,4.0,6.0,78,0.00,,,0.02,15.000000,,2013-03-16 14:02:00,
2013-03-16 09:32:00,7.0,0.0,-100.00,WNW,286,4.0,7.0,72,0.00,,,0.02,106.000000,,2013-03-16 14:32:00,
2013-03-16 09:42:00,7.0,0.0,-100.00,WNW,286,4.0,7.0,72,0.00,,,0.02,106.000000,,2013-03-16 14:42:00,
2013-03-16 09:52:00,7.0,0.0,-100.00,WNW,286,4.0,7.0,72,0.00,,,0.02,106.000000,,2013-03-16 14:52:00,
2013-03-16 10:02:00,7.0,0.0,-100.00,WNW,286,4.0,7.0,72,0.00,,,0.02,106.000000,,2013-03-16 15:02:00,
2013-03-16 10:33:00,11.0,0.0,-100.00,WNW,290,6.0,10.0,61,0.00,,,0.02,228.000000,,2013-03-16 15:33:00,
2013-03-16 10:44:00,11.0,0.0,-100.00,WNW,290,6.0,10.0,61,0.00,,,0.02,228.000000,,2013-03-16 15:44:00,
2013-03-16 10:53:00,11.0,0.0,-100.00,WNW,290,6.0,10.0,61,0.00,,,0.02,228.000000,,2013-03-16 15:53:00,
2013-03-16 11:03:00,11.0,0.0,-100.00,WNW,290,6.0,10.0,61,0.00,,,0.02,228.000000,,2013-03-16 16:03:00,
2013-03-16 11:23:00,13.0,-1.0,-100.00,WNW,286,8.0,13.0,53,0.00,,,0.02,363.000000,,2013-03-16 16:23:00,
2013-03-16 11:33:00,13.0,-1.0,-100.00,WNW,286,8.0,13.0,53,0.00,,,0.02,363.000000,,2013-03-16 16:33:00,
2013-03-16 11:43:00,13.0,-1.0,-100.00,WNW,286,8.0,13.0,53,0.00,,,0.02,363.000000,,2013-03-16 16:43:00,
2013-03-16 11:53:00,13.0,-1.0,-100.00,WNW,286,8.0,13.0,53,0.00,,,0.02,363.000000,,2013-03-16 16:53:00,
2013-03-16 12:03:00,13.0,-1.0,-100.00,WNW,286,8.0,13.0,53,0.00,,,0.02,363.000000,,2013-03-16 17:03:00,
2013-03-16 12:33:00,14.0,-3.0,-100.00,WNW,302,11.0,16.0,46,0.00,,,0.02,654.000000,,2013-03-16 17:33:00,
2013-03-16 12:43:00,14.0,-3.0,-100.00,WNW,302,11.0,16.0,46,0.00,,,0.02,654.000000,,2013-03-16 17:43:00,
2013-03-16 12:53:00,14.0,-3.0,-100.00,WNW,302,11.0,16.0,46,0.00,,,0.02,654.000000,,2013-03-16 17:53:00,
2013-03-16 13:02:00,14.0,-3.0,-100.00,WNW,302,11.0,16.0,46,0.00,,,0.02,654.000000,,2013-03-16 18:02:00,
2013-03-16 13:33:00,18.0,1.0,-100.00,WNW,284,9.0,15.0,47,0.00,,,0.02,618.000000,,2013-03-16 18:33:00,
2013-03-16 13:43:00,18.0,1.0,-100.00,WNW,284,9.0,15.0,47,0.00,,,0.02,618.000000,,2013-03-16 18:43:00,
2013-03-16 13:53:00,18.0,1.0,-100.00,WNW,284,9.0,15.0,47,0.00,,,0.02,618.000000,,2013-03-16 18:53:00,
2013-03-16 14:02:00,18.0,1.0,-100.00,WNW,284,9.0,15.0,47,0.00,,,0.02,618.000000,,2013-03-16 19:02:00,
2013-03-16 14:22:00,16.0,-1.0,-100.00,WNW,282,14.0,21.0,46,0.00,,,0.02,567.000000,,2013-03-16 19:22:00,
2013-03-16 14:33:00,16.0,-1.0,-100.00,WNW,282,14.0,21.0,46,0.00,,,0.02,567.000000,,2013-03-16 19:33:00,
2013-03-16 14:42:00,16.0,-1.0,-100.00,WNW,282,14.0,21.0,46,0.00,,,0.02,567.000000,,2013-03-16 19:42:00,
2013-03-16 14:53:00,16.0,-1.0,-100.00,WNW,282,14.0,21.0,46,0.00,,,0.02,567.000000,,2013-03-16 19:53:00,
2013-03-16 15:02:00,16.0,-1.0,-100.00,WNW,282,14.0,21.0,46,0.00,,,0.02,567.000000,,2013-03-16 20:02:00,
2013-03-16 15:33:00,17.0,0.0,-100.00,WNW,296,12.0,21.0,46,0.00,,,0.02,432.000000,,2013-03-16 20:33:00,
2013-03-16 15:42:00,17.0,0.0,-100.00,WNW,296,12.0,21.0,46,0.00,,,0.02,432.000000,,2013-03-16 20:42:00,
2013-03-16 15:52:00,17.0,0.0,-100.00,WNW,296,12.0,21.0,46,0.00,,,0.02,432.000000,,2013-03-16 20:52:00,
2013-03-16 16:02:00,17.0,0.0,-100.00,WNW,296,12.0,21.0,46,0.00,,,0.02,432.000000,,2013-03-16 21:02:00,
2013-03-16 16:23:00,15.0,-2.0,-100.00,WNW,295,13.0,22.0,47,0.00,,,0.02,373.000000,,2013-03-16 21:23:00,
2013-03-16 16:33:00,15.0,-2.0,-100.00,WNW,295,13.0,22.0,47,0.00,,,0.02,373.000000,,2013-03-16 21:33:00,
2013-03-16 16:43:00,15.0,-2.0,-100.00,WNW,295,13.0,22.0,47,0.00,,,0.02,373.000000,,2013-03-16 21:43:00,
2013-03-16 16:53:00,15.0,-2.0,-100.00,WNW,295,13.0,22.0,47,0.00,,,0.02,373.000000,,2013-03-16 21:53:00,
2013-03-16 17:03:00,15.0,-2.0,-100.00,WNW,295,13.0,22.0,47,0.00,,,0.02,373.000000,,2013-03-16 22:03:00,
2013-03-16 17:33:00,17.0,-1.0,-100.00,WNW,286,17.0,26.0,44,0.00,,,0.02,330.000000,,2013-03-16 22:33:00,
2013-03-16 17:42:00,17.0,-1.0,-100.00,WNW,286,17.0,26.0,44,0.00,,,0.02,330.000000,,2013-03-16 22:42:00,
2013-03-16 17:52:00,17.0,-1.0,-100.00,WNW,286,17.0,26.0,44,0.00,,,0.02,330.000000,,2013-03-16 22:52:00,
2013-03-16 18:02:00,17.0,-1.0,-100.00,WNW,286,17.0,26.0,44,0.00,,,0.02,330.000000,,2013-03-16 23:02:00,
2013-03-16 18:33:00,14.0,-7.0,-100.00,WNW,303,16.0,26.0,38,0.00,,,0.02,273.000000,,2013-03-16 23:33:00,
2013-03-16 18:42:00,14.0,-7.0,-100.00,WNW,303,16.0,26.0,38,0.00,,,0.02,273.000000,,2013-03-16 23:42:00,
2013-03-16 18:52:00,14.0,-7.0,-100.00,WNW,303,16.0,26.0,38,0.00,,,0.02,273.000000,,2013-03-16 23:52:00,
2013-03-16 19:02:00,14.0,-7.0,-100.00,WNW,303,16.0,26.0,38,0.00,,,0.02,273.000000,,2013-03-17 00:02:00,
2013-03-16 19:33:00,9.0,-7.0,-100.00,NW,322,11.0,26.0,48,0.00,,,0.02,89.000000,,2013-03-17 00:33:00,
2013-03-16 19:43:00,9.0,-7.0,-100.00,NW,322,11.0,26.0,48,0.00,,,0.02,89.000000,,2013-03-17 00:43:00,
2013-03-16 19:52:00,9.0,-7.0,-100.00,NW,322,11.0,26.0,48,0.00,,,0.02,89.000000,,2013-03-17 00:52:00,
2013-03-16 20:02:00,9.0,-7.0,-100.00,NW,322,11.0,26.0,48,0.00,,,0.02,89.000000,,2013-03-17 01:02:00,
2013-03-16 20:33:00,6.0,-5.0,-100.00,NW,317,7.0,18.0,59,0.00,,,0.02,3.000000,,2013-03-17 01:33:00,
2013-03-16 20:43:00,6.0,-5.0,-100.00,NW,317,7.0,18.0,59,0.00,,,0.02,3.000000,,2013-03-17 01:43:00,
2013-03-16 20:53:00,6.0,-5.0,-100.00,NW,317,7.0,18.0,59,0.00,,,0.02,3.000000,,2013-03-17 01:53:00,
2013-03-16 21:02:00,6.0,-5.0,-100.00,NW,317,7.0,18.0,59,0.00,,,0.02,3.000000,,2013-03-17 02:02:00,
2013-03-16 21:23:00,3.0,-10.0,-100.00,WNW,300,4.0,11.0,53,0.00,,,0.02,0.000000,,2013-03-17 02:23:00,
2013-03-16 21:33:00,3.0,-10.0,-100.00,WNW,300,4.0,11.0,53,0.00,,,0.02,0.000000,,2013-03-17 02:33:00,
2013-03-16 21:43:00,3.0,-10.0,-100.00,WNW,300,4.0,11.0,53,0.00,,,0.02,0.000000,,2013-03-17 02:43:00,
2013-03-16 21:53:00,3.0,-10.0,-100.00,WNW,300,4.0,11.0,53,0.00,,,0.02,0.000000,,2013-03-17 02:53:00,
2013-03-16 22:02:00,3.0,-10.0,-100.00,WNW,300,4.0,11.0,53,0.00,,,0.02,0.000000,,2013-03-17 03:02:00,
2013-03-16 22:34:00,0.0,-11.0,-100.00,WNW,301,5.0,7.0,58,0.00,,,0.01,0.000000,,2013-03-17 03:34:00,
2013-03-16 22:43:00,0.0,-11.0,-100.00,WNW,301,5.0,7.0,58,0.00,,,0.01,0.000000,,2013-03-17 03:43:00,
2013-03-16 22:53:00,0.0,-11.0,-100.00,WNW,301,5.0,7.0,58,0.00,,,0.01,0.000000,,2013-03-17 03:53:00,
2013-03-16 23:03:00,0.0,-11.0,-100.00,WNW,301,5.0,7.0,58,0.00,,,0.01,0.000000,,2013-03-17 04:03:00,
2013-03-16 23:33:00,-1.0,-11.0,-100.00,NW,320,5.0,7.0,62,0.00,,,0.01,0.000000,,2013-03-17 04:33:00,
2013-03-16 23:43:00,-1.0,-11.0,-100.00,NW,320,5.0,7.0,62,0.00,,,0.01,0.000000,,2013-03-17 04:43:00,
2013-03-16 23:53:00,-1.0,-11.0,-100.00,NW,320,5.0,7.0,62,0.00,,,0.01,0.000000,,2013-03-17 04:53:00,